CZ-4B DEB, 43431

Orbit data source: Space-Track

CZ-4B DEB, 43431 is space debris in LEO originally from a launch on Thu, 15 Jun 2017 UTC launched from the Jiuquan Satellite Launch Center, China (JSC). Debris objects in space refer to the collection of defunct objects orbiting the Earth. Examples of debris include non-operational satellites, rocket bodies, and fragments generated from explosions, collisions, or faulty payload assembly.

Loading next visibility...
CZ-4B DEB details
Identifier
43431, 2017-034G
Orbit
LEO
Last TLE update11 hours ago
Origin
Flag of CNCNSA (CN / PRC)
ManufacturerSAST
MissionSpacecraft
Bus & MotorUnknown
MassUnknown
Launch date (UTC)
2017-06-15 (8 years ago)
Launch vehicleUnknown
Launch site
Jiuquan Satellite Launch Center, China (JSC)
Object type
Payload
Rocket body
Debris
Shape & HBRUnknown
Radar Cross SectionSmall (<0.1 m²)

Expand to show TLE details & history

TLE from 11 hours ago
0 CZ-4B DEB
1 43431U 17034G   24361.38630508  .00024129  00000-0  22979-2 0  9998
2 43431  43.0883  10.9949 0141502 193.4166 166.2890 14.85684883399680
Epoch: 2024-12-26T09:16Z
Definitive object data (Epoch: 2024-12-26T09:16:16.758Z)
Latitude-0.00002°
Longitude136.55861°
Altitude707.375 km
Speed7.452 km/s
True Right ascension00h 43m 58s
True Declination0° 00' 00"
Sunlit
Object was in daylight at TLE epoch
Visualization TLE readout
Latitude-33.80753°
Longitude-0.41263°
Altitude542.552 km
Speed7.634 km/s
Apparent Right ascension12h 03m 21s
Apparent Declination-57° 05' 58"
Sunlit
Object is in daylight
Visualization observer readout
Local Sidereal Time19:22:42
Azimuth224.185° SW
Elevation-42.854°
Doppler factor1
Orbital elements
Apogee altitude712.263 km
Perigee altitude514.402 km
Semi-major axis6,991.47 km
Eccentricity0.0141502
Inclination43.0883°
RAAN10.9949°
Arg. of periapsis193.4166°
True anomaly166.66683°
Mean anomaly166.289°
Eccentric anomaly166.47856°
Mean motion3.71271 °/min
BSTAR0.0022979
Orbital period96.96 mins
Loading maneuver chart data...
Loading historical data...
Loading historical data...
Loading historical data...
Loading historical data...
Loading historical data...
Loading historical data...
Loading historical data...

CZ-4B DEB Visibility forecast

Observer location: undefined°, undefined

Span
Click to sort rows by Start time (UTC) header in descending order
Start Az.
Max El. time (UTC)
Max El. Az.
Max El.
End time (UTC)
End Az.
7 mins2024-12-27 03:10:57.543Z193.756° SSW2024-12-27 03:14:57.543Z139.255° SSE21.764°2024-12-27 03:17:57.543Z96.286° ESE
8 mins2024-12-27 04:52:57.543Z241.583° WSW2024-12-27 04:55:57.543Z203.296° SW43.669°2024-12-27 05:00:57.543Z72.824° E
7 mins2024-12-27 06:34:57.543Z279.679° WNW2024-12-27 06:37:57.543Z329.39° NNW39.775°2024-12-27 06:41:57.543Z72.862° E
7 mins2024-12-27 08:16:57.543Z289.869° WNW2024-12-27 08:20:57.543Z59.411° ENE43.063°2024-12-27 08:23:57.543Z98.773° ESE
6 mins2024-12-27 09:59:57.543Z264.91° W2024-12-27 10:01:57.543Z221.628° SW30.533°2024-12-27 10:05:57.543Z145.971° SSE
|